When you browse on this site, cookies collect data to enhance your experience and personalize the content and advertising you see.
Visit our Privacy Policy to learn more. By continuing to use the site, you agree to this use of cookies and data.
EN

Hourly Weather Culemborg

Today, 3 August, Monday

Time Temperature Precipitation Wind Pressure Humidity
00:00 +12°C° 0 mm 0 mps 761 mmHg 76%
01:00 +12°C° 0 mm 0 mps 760 mmHg 76%
02:00 +13°C° 0 mm 1 mps 760 mmHg 76%
03:00 +13°C° 0 mm 1 mps 760 mmHg 77%
04:00 +14°C° 0 mm 1 mps 760 mmHg 76%
05:00 +14°C° 0 mm 1 mps 760 mmHg 75%
06:00 +16°C° 0 mm 2 mps 760 mmHg 77%
07:00 +17°C° 0 mm 2 mps 760 mmHg 72%
08:00 +18°C° 0 mm 2 mps 760 mmHg 66%
09:00 +20°C° 0 mm 2 mps 760 mmHg 61%
10:00 +20°C° 0.2 mm 2 mps 760 mmHg 60%
11:00 +21°C° 0.2 mm 2 mps 759 mmHg 60%
12:00 +21°C° 0 mm 2 mps 759 mmHg 61%
13:00 +20°C° 0.7 mm 2 mps 759 mmHg 65%
14:00 +20°C° 0.7 mm 2 mps 759 mmHg 69%
15:00 +19°C° 0.7 mm 2 mps 759 mmHg 74%
16:00 +19°C° 0 mm 2 mps 759 mmHg 76%
17:00 +18°C° 0 mm 2 mps 759 mmHg 77%
18:00 +18°C° 0 mm 3 mps 759 mmHg 79%
19:00 +16°C° 0 mm 3 mps 760 mmHg 82%
20:00 +15°C° 0 mm 2 mps 760 mmHg 85%
21:00 +14°C° 0 mm 2 mps 760 mmHg 87%
22:00 +14°C° 0 mm 2 mps 760 mmHg 88%
23:00 +13°C° 0 mm 2 mps 761 mmHg 88%

Tomorrow, 4 August, Tuesday

Time Temperature Precipitation Wind Pressure Humidity
00:00 +13°C° 0 mm 2 mps 761 mmHg 89%
01:00 +12°C° 0 mm 1 mps 761 mmHg 89%
02:00 +12°C° 0 mm 1 mps 761 mmHg 90%
03:00 +12°C° 0 mm 1 mps 761 mmHg 90%
04:00 +13°C° 0 mm 1 mps 761 mmHg 88%
05:00 +14°C° 0 mm 1 mps 761 mmHg 85%
06:00 +15°C° 0 mm 1 mps 761 mmHg 83%
07:00 +16°C° 0 mm 1 mps 762 mmHg 75%
08:00 +19°C° 0 mm 1 mps 762 mmHg 68%
09:00 +20°C° 0 mm 1 mps 763 mmHg 60%
10:00 +21°C° 0 mm 1 mps 762 mmHg 56%
11:00 +21°C° 0 mm 2 mps 762 mmHg 52%
12:00 +23°C° 0 mm 2 mps 762 mmHg 47%
13:00 +23°C° 0 mm 2 mps 762 mmHg 47%
14:00 +23°C° 0 mm 2 mps 762 mmHg 47%
15:00 +22°C° 0 mm 3 mps 761 mmHg 47%
16:00 +23°C° 0 mm 2 mps 761 mmHg 52%
17:00 +22°C° 0 mm 1 mps 761 mmHg 56%
18:00 +21°C° 0 mm 1 mps 761 mmHg 61%
19:00 +20°C° 0 mm 1 mps 761 mmHg 62%
20:00 +19°C° 0 mm 1 mps 761 mmHg 64%
21:00 +16°C° 0 mm 2 mps 762 mmHg 65%
22:00 +16°C° 0 mm 2 mps 761 mmHg 67%
23:00 +15°C° 0 mm 2 mps 761 mmHg 69%

Day after tomorrow, 5 August, Wednesday

Time Temperature Precipitation Wind Pressure Humidity
00:00 +15°C° 0 mm 2 mps 761 mmHg 72%
01:00 +15°C° 0 mm 2 mps 761 mmHg 72%
02:00 +13°C° 0 mm 3 mps 761 mmHg 73%
03:00 +13°C° 0 mm 3 mps 761 mmHg 74%
04:00 +13°C° 0 mm 3 mps 761 mmHg 73%
05:00 +14°C° 0 mm 3 mps 761 mmHg 73%
06:00 +14°C° 0 mm 3 mps 761 mmHg 72%
07:00 +17°C° 0 mm 4 mps 761 mmHg 67%
08:00 +19°C° 0 mm 4 mps 762 mmHg 61%
09:00 +21°C° 0 mm 4 mps 762 mmHg 56%
10:00 +22°C° 0 mm 4 mps 762 mmHg 53%
11:00 +25°C° 0 mm 4 mps 762 mmHg 50%
12:00 +26°C° 0 mm 4 mps 761 mmHg 47%
13:00 +26°C° 0 mm 3 mps 761 mmHg 45%
14:00 +27°C° 0 mm 3 mps 761 mmHg 44%
15:00 +28°C° 0 mm 2 mps 761 mmHg 43%
16:00 +27°C° 0 mm 2 mps 761 mmHg 47%
17:00 +26°C° 0 mm 1 mps 761 mmHg 52%
18:00 +26°C° 0 mm 1 mps 761 mmHg 56%
19:00 +24°C° 0 mm 1 mps 762 mmHg 58%
20:00 +23°C° 0 mm 2 mps 762 mmHg 59%
21:00 +20°C° 0 mm 2 mps 762 mmHg 60%
22:00 +20°C° 0 mm 2 mps 762 mmHg 61%
23:00 +19°C° 0 mm 2 mps 762 mmHg 62%

6 August, Thursday

Time Temperature Precipitation Wind Pressure Humidity
00:00 +19°C° 0 mm 2 mps 762 mmHg 63%
01:00 +18°C° 0 mm 2 mps 762 mmHg 64%
02:00 +18°C° 0 mm 2 mps 763 mmHg 65%
03:00 +18°C° 0 mm 2 mps 763 mmHg 67%
04:00 +18°C° 0 mm 2 mps 763 mmHg 68%
05:00 +19°C° 0 mm 2 mps 763 mmHg 70%
06:00 +19°C° 0 mm 2 mps 763 mmHg 71%
07:00 +21°C° 0 mm 2 mps 764 mmHg 65%
08:00 +24°C° 0 mm 2 mps 764 mmHg 60%
09:00 +26°C° 0 mm 2 mps 764 mmHg 54%
10:00 +27°C° 0 mm 2 mps 764 mmHg 50%
11:00 +28°C° 0 mm 2 mps 764 mmHg 47%
12:00 +29°C° 0 mm 2 mps 764 mmHg 43%
13:00 +30°C° 0 mm 2 mps 764 mmHg 42%
14:00 +30°C° 0 mm 2 mps 764 mmHg 42%
15:00 +30°C° 0 mm 3 mps 764 mmHg 41%
16:00 +29°C° 0 mm 2 mps 764 mmHg 45%
17:00 +28°C° 0 mm 2 mps 764 mmHg 50%
18:00 +27°C° 0 mm 2 mps 764 mmHg 55%
19:00 +26°C° 0 mm 2 mps 764 mmHg 57%
20:00 +24°C° 0 mm 2 mps 764 mmHg 60%
21:00 +23°C° 0 mm 2 mps 764 mmHg 62%
22:00 +21°C° 0 mm 2 mps 764 mmHg 63%
23:00 +20°C° 0 mm 2 mps 764 mmHg 64%

7 August, Friday

Time Temperature Precipitation Wind Pressure Humidity
00:00 +20°C° 0 mm 2 mps 764 mmHg 66%
01:00 +20°C° 0 mm 2 mps 764 mmHg 65%
02:00 +19°C° 0 mm 2 mps 764 mmHg 65%
03:00 +19°C° 0 mm 2 mps 764 mmHg 64%
04:00 +19°C° 0 mm 2 mps 764 mmHg 66%
05:00 +20°C° 0 mm 2 mps 764 mmHg 68%
06:00 +20°C° 0 mm 2 mps 764 mmHg 69%
07:00 +23°C° 0 mm 2 mps 764 mmHg 64%
08:00 +25°C° 0 mm 2 mps 764 mmHg 59%
09:00 +27°C° 0 mm 2 mps 764 mmHg 54%
10:00 +28°C° 0 mm 2 mps 764 mmHg 50%
11:00 +30°C° 0 mm 2 mps 764 mmHg 46%
12:00 +31°C° 0 mm 2 mps 764 mmHg 42%
13:00 +31°C° 0 mm 2 mps 763 mmHg 42%
14:00 +31°C° 0 mm 2 mps 763 mmHg 42%
15:00 +31°C° 0 mm 2 mps 763 mmHg 41%
16:00 +30°C° 0 mm 2 mps 763 mmHg 47%
17:00 +29°C° 0 mm 2 mps 763 mmHg 52%
18:00 +28°C° 0 mm 2 mps 762 mmHg 58%
19:00 +27°C° 0 mm 2 mps 762 mmHg 60%
20:00 +26°C° 0 mm 2 mps 762 mmHg 62%
21:00 +25°C° 0 mm 2 mps 762 mmHg 64%
22:00 +24°C° 0 mm 2 mps 762 mmHg 68%
23:00 +24°C° 0 mm 2 mps 762 mmHg 71%

8 August, Saturday

Time Temperature Precipitation Wind Pressure Humidity
00:00 +23°C° 0 mm 2 mps 762 mmHg 75%
01:00 +23°C° 0 mm 2 mps 762 mmHg 76%
02:00 +23°C° 0 mm 2 mps 762 mmHg 77%
03:00 +23°C° 0 mm 1 mps 761 mmHg 78%
04:00 +23°C° 0 mm 1 mps 761 mmHg 78%
05:00 +24°C° 0 mm 2 mps 761 mmHg 77%
06:00 +25°C° 0 mm 2 mps 761 mmHg 76%
07:00 +26°C° 0 mm 2 mps 761 mmHg 70%
08:00 +28°C° 0 mm 2 mps 761 mmHg 64%
09:00 +30°C° 0 mm 2 mps 761 mmHg 58%
10:00 +31°C° 0 mm 2 mps 761 mmHg 56%
11:00 +32°C° 0 mm 2 mps 761 mmHg 53%
12:00 +32°C° 0 mm 2 mps 761 mmHg 50%
13:00 +34°C° 0 mm 2 mps 761 mmHg 48%
14:00 +34°C° 0 mm 2 mps 761 mmHg 46%
15:00 +34°C° 0 mm 2 mps 760 mmHg 45%
16:00 +31°C° 0.3 mm 2 mps 761 mmHg 54%
17:00 +29°C° 0.3 mm 3 mps 761 mmHg 63%
18:00 +26°C° 0.3 mm 4 mps 761 mmHg 72%
19:00 +25°C° 0.2 mm 4 mps 761 mmHg 76%
20:00 +22°C° 0.2 mm 4 mps 762 mmHg 81%
21:00 +20°C° 0.2 mm 4 mps 762 mmHg 86%
22:00 +20°C° 0 mm 4 mps 762 mmHg 87%
23:00 +19°C° 0 mm 4 mps 762 mmHg 88%
Show more